Wind_Speed
25 33 34 40 44 47 51 55 60 63 64 67 65 62 53 42 29 11 6 14 26 40 56 73 92 103 115 123 135 137 140 136 133 136 123 116 113 108 107 97 92 89 80 74
29 30 32 39 42 43 47 52 56 59 64 63 64 63 57 45 35 20 1 12 21 37 52 66 87 102 115 123 134 139 142 138 135 140 133 125 120 117 112 111 101 94 88 84
31 32 35 38 40 41 43 48 53 57 59 60 61 61 59 51 41 29 13 9 18 31 48 63 78 98 113 124 133 137 143 140 140 140 133 126 121 116 116 113 102 99 96 93
34 31 35 36 38 39 40 45 51 54 55 57 57 58 58 56 46 35 22 5 16 24 41 59 72 92 110 124 131 139 143 144 141 137 139 131 131 118 115 115 106 100 104 105
33 36 34 36 39 41 40 45 47 51 50 51 54 56 56 55 51 43 30 16 7 21 31 50 68 82 106 122 129 137 147 147 143 142 140 136 133 133 124 115 117 109 109 114
32 33 30 36 40 42 40 43 46 48 47 47 48 53 54 54 53 47 40 26 11 13 26 38 58 76 95 117 130 135 144 149 149 145 144 138 136 133 130 128 122 123 115 120
30 34 38 37 38 41 42 44 46 46 46 46 47 47 51 52 51 49 41 34 20 7 19 31 45 66 84 106 125 136 140 145 153 150 147 141 140 134 131 130 128 123 122 123
32 33 37 40 42 43 43 44 45 45 43 43 44 45 46 49 49 49 45 39 32 18 9 24 37 52 73 92 117 131 139 145 149 155 150 147 147 142 137 131 135 133 126 121
34 34 36 38 39 41 39 38 40 41 38 42 46 47 46 47 49 49 47 43 38 30 18 14 28 42 58 80 101 125 135 142 149 156 155 155 155 150 143 138 137 139 138 131
39 38 39 40 41 41 41 39 41 43 41 43 46 48 48 47 47 48 48 47 41 36 30 20 20 33 47 63 86 108 132 140 147 152 156 160 156 156 151 148 141 141 143 139
43 42 42 42 41 43 44 46 46 46 45 45 48 48 49 48 50 48 49 46 45 39 35 30 23 27 37 52 68 91 115 137 145 150 155 156 160 160 160 157 150 145 144 142
47 46 46 45 44 46 47 49 47 47 48 46 47 48 48 50 51 51 48 47 46 44 39 35 30 27 32 42 57 73 95 119 141 149 154 157 157 159 163 162 157 152 149 149
50 49 49 48 47 47 47 48 49 47 50 49 49 50 49 51 52 51 50 49 45 48 43 39 35 32 32 39 47 62 77 98 120 144 155 158 161 159 161 163 163 158 157 151
52 52 54 53 52 51 50 49 50 50 50 51 53 52 53 52 52 52 51 50 49 47 48 43 40 37 37 39 45 53 67 81 100 120 145 158 161 163 163 164 164 163 161 163
52 53 55 57 57 57 56 53 54 53 54 54 54 54 53 55 55 54 53 52 51 50 49 46 43 41 40 40 42 49 58 71 85 102 119 143 159 164 168 167 167 167 168 166
53 54 55 57 57 55 54 53 56 56 54 55 54 55 53 55 57 57 57 55 52 52 51 49 47 44 43 42 42 46 53 63 74 88 103 119 141 158 167 170 170 170 171 170
53 57 57 57 57 56 56 57 58 61 61 61 60 59 57 58 60 60 60 58 56 57 55 53 50 47 45 44 42 44 49 56 67 77 89 104 120 139 156 168 172 175 174 174
54 57 54 57 61 62 61 62 63 65 65 66 66 64 61 60 61 62 62 61 60 61 58 58 53 49 46 45 43 44 46 51 60 69 79 90 104 119 134 154 167 176 178 178
51 54 54 57 59 64 65 64 65 65 67 67 67 65 63 61 62 64 64 64 64 64 61 60 55 52 49 46 45 42 43 47 54 63 71 81 91 103 117 130 146 165 176 181
49 50 51 53 56 59 62 64 66 66 65 67 66 67 65 62 62 64 66 66 65 66 65 62 58 54 52 49 45 42 41 43 49 56 64 72 82 93 103 115 127 140 160 175
47 47 49 51 54 58 62 66 68 67 67 68 68 67 64 60 62 65 66 67 67 67 66 64 58 56 53 49 45 42 40 41 45 52 59 66 74 82 92 102 112 123 134 148
47 47 49 52 54 56 60 64 66 67 69 69 67 64 62 61 64 66 67 68 70 69 66 63 59 57 54 50 46 42 40 41 43 48 53 61 68 75 83 91 101 109 118 127
46 46 49 52 54 55 55 57 61 64 66 65 64 63 62 63 65 68 67 71 72 69 66 62 61 57 54 50 45 42 39 40 42 46 50 56 62 69 75 82 89 97 106 112
45 46 50 51 52 53 53 53 54 57 58 59 61 61 62 64 67 69 71 73 71 67 64 63 61 56 53 49 45 42 40 38 40 44 48 53 57 63 69 73 79 85 92 100
45 47 50 51 52 53 51 51 53 54 55 57 58 61 63 66 68 72 74 71 68 66 65 63 59 56 51 48 45 42 39 37 37 41 46 49 53 57 62 66 71 76 80 86
45 47 49 50 51 51 50 51 52 54 56 58 60 63 66 69 72 73 71 68 67 66 65 61 57 53 49 46 43 40 37 36 36 38 42 45 48 52 56 60 64 67 72 76
45 47 48 49 48 48 49 51 53 55 56 59 62 66 69 72 72 71 69 68 68 67 62 58 55 50 47 45 42 39 36 34 33 35 37 40 44 48 52 55 59 62 66 70
Wind_Direction
316 317 326 339 348 352 355 357 360 1 4 9 9 11 14 15 15 8 225 217 202 194 199 198 192 191 192 189 189 189 190 191 192 192 194 194 202 201 203 205 204 203 207 216
314 312 321 335 342 348 352 356 357 360 360 7 9 9 13 15 17 14 316 211 207 198 197 199 198 193 193 191 191 192 192 192 193 193 196 199 205 205 206 205 203 208 208 213
309 309 316 324 332 338 344 351 355 355 360 1 9 9 10 12 18 18 12 208 215 204 199 199 200 197 195 193 192 195 193 195 195 197 197 200 202 205 207 204 208 205 208 213
305 299 304 311 320 329 338 342 347 350 355 358 4 9 9 8 10 18 18 342 218 216 205 200 201 200 198 197 195 195 197 196 197 198 199 201 204 204 205 205 205 206 209 213
305 305 303 305 315 323 327 334 341 345 349 354 358 5 7 8 5 8 15 11 256 225 214 208 204 203 200 200 198 197 198 200 200 199 199 201 205 206 207 208 211 210 211 217
304 306 307 301 302 309 316 321 331 336 341 348 356 360 5 7 7 2 2 8 354 242 228 216 211 206 204 202 202 201 201 201 203 202 202 202 205 208 209 211 213 214 218 218
306 307 313 314 311 307 309 318 319 329 332 338 349 356 1 3 5 3 358 356 1 314 238 229 217 214 208 206 205 204 203 203 204 205 205 204 204 205 210 213 214 216 216 220
300 304 308 313 317 316 312 312 318 325 326 330 342 351 356 359 0 2 359 354 348 343 273 236 229 219 215 209 208 208 205 205 207 206 207 206 205 207 209 214 216 217 218 219
286 294 300 305 310 315 315 317 321 326 326 328 336 341 348 355 355 359 358 354 347 337 322 258 235 229 220 216 211 209 210 207 208 209 209 210 209 211 210 212 217 220 221 222
286 289 293 298 303 310 315 315 319 323 323 327 331 333 340 345 349 351 354 352 349 339 323 303 255 235 229 221 217 213 211 212 210 210 211 213 214 215 214 214 215 219 222 223
283 288 291 293 299 302 304 308 313 316 319 321 324 327 332 337 341 344 346 346 347 341 329 310 287 251 236 229 222 218 214 214 213 213 213 213 215 216 217 218 218 220 222 224
278 283 287 290 295 297 302 306 309 312 313 317 321 324 327 332 334 337 339 340 340 342 333 316 298 275 249 236 230 223 219 216 216 215 215 216 215 216 218 219 220 221 223 224
274 278 281 284 289 293 297 301 302 305 307 311 315 317 321 325 327 329 332 333 335 338 334 322 304 289 267 246 235 231 224 221 219 217 217 217 218 218 218 220 221 222 222 224
272 275 278 280 283 286 289 293 297 301 304 308 310 312 315 318 320 323 326 329 330 331 331 325 310 296 278 259 244 235 231 226 222 221 219 219 220 219 220 221 221 223 224 225
271 273 275 279 283 284 287 290 293 297 300 303 306 309 312 313 315 316 320 323 325 326 326 323 313 301 288 271 255 243 234 231 227 224 223 221 221 221 221 222 222 223 224 226
271 274 276 277 280 282 284 288 293 297 300 302 302 305 308 310 311 313 315 317 320 321 322 320 314 303 293 280 264 250 243 235 231 229 225 224 223 222 222 223 223 224 225 227
274 276 276 279 282 285 288 290 294 297 300 303 304 305 306 307 312 312 312 313 316 318 319 318 314 304 296 285 271 258 248 241 235 231 230 227 226 225 223 224 224 225 227 227
277 279 282 282 283 287 290 292 294 297 299 301 303 305 306 308 310 311 310 311 314 317 317 317 313 305 298 287 277 267 256 247 239 235 232 231 229 227 226 225 225 225 226 228
280 282 286 286 285 285 287 290 292 295 297 299 302 304 306 308 308 308 309 310 312 315 316 316 312 306 300 291 284 275 263 253 245 239 235 232 231 230 229 228 228 226 227 228
280 285 288 288 287 286 287 289 291 293 296 298 302 304 305 307 306 307 309 309 312 315 316 315 311 306 301 296 290 280 268 258 249 243 239 235 233 232 231 230 229 230 229 229
281 285 289 291 290 288 287 288 289 293 296 299 301 303 306 305 305 307 309 310 313 315 316 314 310 307 303 299 293 283 273 263 254 246 241 239 236 234 232 232 232 231 231 231
281 288 290 293 295 293 289 288 290 292 295 298 302 305 306 306 306 307 309 310 314 316 315 313 310 308 305 301 295 286 277 268 258 250 245 242 240 237 235 233 233 233 233 233
281 286 290 292 294 294 294 292 292 294 296 299 304 306 307 306 307 308 310 314 315 315 314 312 311 308 306 302 296 289 281 271 260 251 247 243 241 240 239 236 235 235 235 235
281 285 288 291 294 297 297 298 298 299 302 303 304 305 306 306 308 310 313 315 314 314 314 313 312 309 306 301 297 290 283 273 262 254 249 246 244 241 240 239 238 237 237 236
281 285 289 293 296 300 301 301 303 303 304 305 305 306 307 309 311 312 314 314 315 315 315 313 311 308 305 301 297 292 285 275 264 256 250 247 244 242 241 240 240 240 239 239
282 286 291 294 298 300 301 303 306 306 305 306 307 308 310 311 312 313 314 315 316 316 315 312 310 308 305 300 297 294 287 278 268 259 252 248 246 244 243 242 242 241 241 241
285 290 294 297 300 301 304 305 306 307 307 307 310 311 311 312 314 315 316 317 316 315 313 310 309 307 303 301 298 294 288 280 271 262 255 250 247 245 244 243 243 243 243 243
Height
10373 10367 10360 10352 10345 10336 10326 10315 10302 10291 10278 10262 10248 10235 10224 10217 10212 10209 10210 10211 10217 10224 10236 10250 10262 10278 10299 10318 10336 10350 10369 10387 10405 10425 10443 10461 10473 10487 10498 10510 10520 10532 10546 10556
10365 10360 10354 10347 10339 10333 10325 10316 10305 10293 10280 10268 10253 10240 10231 10223 10217 10214 10212 10213 10216 10223 10232 10246 10260 10273 10290 10308 10327 10343 10361 10376 10392 10412 10429 10447 10457 10469 10483 10495 10504 10520 10530 10538
10357 10351 10346 10342 10335 10330 10324 10315 10307 10295 10283 10273 10259 10246 10234 10227 10221 10217 10215 10215 10216 10222 10229 10239 10253 10269 10283 10298 10313 10332 10348 10364 10381 10398 10413 10428 10442 10456 10470 10483 10493 10502 10515 10523
10351 10348 10343 10339 10333 10326 10319 10314 10305 10297 10286 10275 10265 10252 10240 10230 10225 10220 10217 10216 10217 10219 10226 10234 10245 10259 10276 10290 10302 10317 10336 10351 10367 10382 10398 10412 10428 10443 10453 10466 10475 10487 10495 10501
10344 10337 10335 10331 10326 10320 10315 10309 10303 10296 10288 10279 10267 10257 10246 10235 10225 10220 10218 10217 10217 10218 10222 10229 10237 10249 10263 10278 10291 10304 10317 10335 10351 10366 10380 10394 10409 10424 10438 10447 10458 10470 10476 10479
10337 10332 10331 10325 10321 10317 10312 10305 10299 10294 10288 10280 10271 10259 10249 10238 10229 10221 10218 10216 10216 10216 10217 10222 10230 10238 10251 10263 10279 10290 10303 10317 10332 10346 10361 10375 10389 10403 10418 10426 10438 10449 10453 10459
10328 10323 10318 10316 10312 10308 10304 10300 10294 10289 10282 10275 10269 10259 10250 10241 10232 10223 10218 10214 10212 10212 10213 10214 10220 10228 10237 10249 10261 10274 10286 10300 10315 10330 10342 10354 10370 10383 10397 10405 10418 10428 10437 10446
10318 10315 10310 10306 10301 10297 10294 10290 10286 10281 10275 10269 10263 10256 10248 10241 10233 10224 10215 10209 10206 10205 10206 10207 10209 10215 10224 10234 10245 10257 10270 10284 10296 10310 10325 10338 10350 10363 10376 10386 10398 10409 10414 10427
10308 10305 10302 10298 10294 10290 10285 10281 10277 10272 10267 10261 10255 10248 10242 10234 10228 10221 10213 10206 10201 10198 10197 10198 10200 10202 10208 10217 10226 10238 10251 10263 10276 10288 10303 10317 10329 10340 10353 10365 10374 10384 10393 10407
10295 10295 10291 10288 10284 10280 10275 10271 10267 10262 10258 10252 10246 10240 10235 10227 10221 10214 10208 10202 10196 10192 10189 10188 10189 10191 10193 10199 10208 10218 10229 10242 10254 10268 10280 10293 10306 10318 10330 10343 10350 10361 10370 10383
10283 10282 10279 10277 10274 10268 10266 10261 10258 10252 10247 10241 10236 10231 10225 10219 10213 10207 10201 10195 10190 10184 10180 10177 10175 10176 10179 10181 10188 10197 10207 10218 10231 10245 10256 10266 10279 10292 10302 10314 10329 10339 10350 10360
10271 10269 10266 10263 10261 10256 10253 10249 10245 10240 10235 10231 10225 10220 10214 10209 10202 10197 10192 10186 10181 10175 10170 10165 10162 10161 10163 10164 10167 10173 10183 10193 10205 10219 10231 10241 10251 10265 10277 10290 10304 10316 10324 10336
10257 10255 10253 10250 10248 10245 10241 10238 10233 10230 10224 10218 10214 10208 10202 10197 10191 10186 10180 10175 10169 10163 10156 10152 10148 10146 10145 10145 10147 10150 10156 10166 10177 10189 10203 10213 10226 10238 10249 10263 10275 10287 10298 10310
10241 10240 10237 10236 10235 10231 10228 10225 10220 10216 10211 10206 10200 10195 10189 10183 10178 10172 10167 10161 10155 10149 10144 10137 10132 10129 10126 10125 10126 10129 10132 10138 10148 10159 10170 10184 10197 10210 10219 10232 10245 10260 10269 10280
10226 10225 10222 10219 10218 10216 10213 10211 10206 10202 10197 10192 10186 10180 10175 10168 10163 10158 10152 10146 10141 10134 10128 10122 10116 10110 10107 10105 10105 10106 10108 10112 10119 10128 10138 10150 10163 10178 10189 10200 10216 10228 10238 10250
10209 10208 10207 10204 10202 10201 10198 10195 10189 10186 10181 10176 10171 10165 10160 10154 10148 10142 10136 10130 10124 10117 10111 10104 10097 10091 10086 10084 10082 10082 10083 10086 10090 10097 10106 10117 10128 10141 10155 10169 10185 10195 10207 10219
10192 10190 10189 10188 10186 10183 10181 10178 10174 10169 10165 10160 10154 10149 10145 10138 10131 10125 10119 10112 10106 10100 10092 10084 10078 10071 10066 10061 10059 10057 10057 10059 10063 10068 10075 10084 10094 10106 10118 10133 10149 10161 10173 10187
10174 10170 10172 10173 10170 10167 10164 10161 10157 10153 10149 10144 10137 10132 10127 10121 10114 10107 10100 10094 10088 10081 10073 10064 10058 10051 10045 10039 10036 10033 10032 10032 10034 10039 10044 10052 10061 10072 10083 10096 10110 10123 10137 10151
10159 10157 10157 10156 10154 10152 10149 10145 10142 10137 10132 10127 10121 10115 10109 10103 10096 10089 10083 10076 10070 10060 10053 10044 10036 10029 10022 10016 10013 10010 10008 10007 10008 10011 10015 10021 10029 10039 10050 10061 10073 10086 10099 10112
10145 10144 10143 10141 10138 10135 10132 10128 10124 10120 10115 10110 10104 10098 10092 10086 10079 10072 10065 10058 10051 10040 10031 10023 10014 10007 9999 9994 9989 9985 9984 9982 9982 9985 9989 9993 9999 10007 10016 10027 10038 10049 10062 10075
10132 10131 10129 10126 10121 10117 10114 10110 10106 10102 10097 10092 10086 10080 10074 10068 10062 10055 10047 10039 10031 10021 10010 10000 9991 9984 9977 9971 9966 9963 9960 9959 9959 9960 9962 9966 9972 9979 9987 9995 10004 10014 10025 10036
10118 10117 10114 10110 10106 10101 10096 10092 10089 10084 10080 10074 10068 10062 10055 10049 10043 10035 10028 10018 10008 9999 9989 9979 9969 9962 9954 9948 9943 9940 9938 9936 9936 9937 9940 9942 9946 9951 9957 9964 9973 9982 9992 10001
10104 10103 10099 10095 10091 10086 10081 10076 10072 10067 10062 10057 10051 10044 10038 10031 10023 10015 10008 9998 9986 9977 9967 9957 9948 9939 9932 9926 9922 9918 9916 9915 9914 9915 9916 9919 9922 9926 9932 9938 9945 9953 9961 9970
10091 10088 10084 10081 10077 10072 10067 10062 10056 10051 10046 10040 10033 10027 10020 10013 10004 9995 9986 9977 9966 9956 9946 9936 9925 9918 9911 9905 9901 9897 9895 9894 9893 9893 9894 9895 9898 9903 9907 9913 9919 9927 9934 9942
10076 10073 10070 10067 10063 10057 10052 10046 10041 10035 10029 10023 10016 10009 10001 9993 9985 9974 9965 9954 9944 9934 9924 9915 9905 9897 9892 9886 9881 9877 9875 9873 9873 9872 9872 9874 9876 9879 9884 9890 9895 9901 9908 9915
10063 10061 10058 10053 10048 10042 10037 10031 10025 10018 10011 10005 9998 9991 9982 9973 9964 9955 9944 9934 9923 9913 9903 9893 9885 9878 9872 9867 9862 9858 9855 9853 9852 9852 9853 9854 9857 9860 9864 9867 9872 9877 9882 9888
10051 10048 10043 10038 10033 10027 10021 10014 10007 10001 9995 9988 9980 9972 9963 9954 9943 9933 9922 9912 9902 9892 9882 9873 9866 9860 9854 9848 9844 9841 9838 9835 9833 9833 9834 9836 9838 9841 9844 9847 9850 9855 9859 9864